LY3PGO-4 Weather Reports


time (UTC)temp
C
wind
direction
speed
KPH
gust
KPH
rain 1hr
cm
rain 24hr
cm
rain mn
cm
humidity
%
barometer
mb
20260508115830 12 67 8.0 22.5 0.00 0.00 0.00 62 1018.3
20260508114823 12 112 3.2 17.7 0.00 0.00 0.00 63 1018.4
20260508113818 12 135 11.3 27.4 0.00 0.00 0.00 62 1018.5
20260508112814 12 112 6.4 20.9 0.00 0.00 0.00 63 1018.2
20260508111804 12 90 4.8 27.4 0.00 0.00 0.00 63 1018.3
20260508110758 12 90 6.4 20.9 0.00 0.00 0.00 62 1018.3
20260508105754 12 90 6.4 17.7 0.00 0.00 0.00 63 1018.0
20260508104747 13 112 9.7 17.7 0.00 0.00 0.00 63 1018.1
20260508103744 12 112 4.8 11.3 0.00 0.00 0.00 64 1018.1
20260508102734 12 135 3.2 22.5 0.00 0.00 0.00 64 1018.1
20260508101728 12 157 6.4 24.1 0.00 0.00 0.00 63 1018.2
20260508100721 12 90 8.0 22.5 0.00 0.00 0.00 64 1018.4
20260508095716 12 112 8.0 20.9 0.00 0.00 0.00 63 1018.3
20260508094714 12 90 6.4 20.9 0.00 0.00 0.00 64 1017.8
20260508093703 13 112 6.4 17.7 0.00 0.00 0.00 64 1018.0
20260508092657 12 157 6.4 17.7 0.00 0.00 0.00 64 1017.7
20260508091651 12 180 6.4 22.5 0.00 0.00 0.00 65 1018.0
20260508090645 12 112 4.8 22.5 0.00 0.00 0.00 66 1017.7
20260508085641 11 67 6.4 20.9 0.00 0.00 0.00 66 1018.0
20260508084632 11 135 6.4 12.9 0.00 0.00 0.00 67 1018.1
20260508083626 11 135 3.2 12.9 0.00 0.00 0.00 68 1017.9
20260508082619 11 112 6.4 22.5 0.00 0.00 0.00 67 1017.9
20260508081613 11 90 11.3 22.5 0.00 0.00 0.00 66 1017.8
20260508080610 11 135 6.4 20.9 0.00 0.03 0.00 67 1017.8
20260508075603 11 180 9.7 20.9 0.00 0.03 0.00 68 1017.8
20260508074554 11 135 4.8 17.7 0.00 0.03 0.00 69 1017.7
20260508073549 11 90 11.3 20.9 0.00 0.03 0.00 68 1017.7
20260508072542 11 135 11.3 24.1 0.00 0.05 0.00 68 1017.9
20260508071540 11 112 6.4 32.2 0.00 0.05 0.00 70 1017.6
20260508070530 10 67 8.0 25.7 0.00 0.05 0.00 70 1017.7
20260508065524 10 112 12.9 20.9 0.00 0.05 0.00 71 1017.6
20260508064518 10 112 12.9 24.1 0.00 0.10 0.00 71 1017.4
20260508063512 10 112 11.3 27.4 0.00 0.15 0.00 72 1017.6
20260508062510 9 112 6.4 22.5 0.00 0.23 0.00 75 1017.3
20260508061459 8 135 8.0 22.5 0.00 0.33 0.00 77 1017.5
20260508060453 8 112 9.7 24.1 0.00 0.43 0.00 79 1017.3
20260508055447 8 90 6.4 25.7 0.00 0.46 0.00 80 1017.3
20260508054441 8 135 4.8 22.5 0.00 0.46 0.00 82 1017.3
20260508053437 7 112 4.8 20.9 0.00 0.51 0.00 83 1017.2
20260508052428 7 157 6.4 22.5 0.00 0.51 0.00 84 1017.3
20260508051422 7 90 6.4 20.9 0.00 0.51 0.00 86 1017.1
20260508050416 7 90 6.4 17.7 0.00 0.51 0.00 87 1017.1
20260508045411 7 135 3.2 17.7 0.00 0.51 0.00 89 1017.1
20260508044407 7 135 3.2 24.1 0.00 0.51 0.00 89 1017.2
20260508043357 6 157 4.8 17.7 0.00 0.51 0.00 89 1017.1
20260508042351 6 135 3.2 17.7 0.00 0.51 0.00 91 1017.3
20260508041344 6 157 6.4 14.5 0.00 0.51 0.00 91 1017.1
20260508040339 6 135 6.4 17.7 0.00 0.51 0.00 92 1016.7
20260508035336 6 135 3.2 12.9 0.00 0.51 0.00 92 1016.9
20260508034326 6 135 3.2 14.5 0.00 0.51 0.00 92 1016.6
20260508033320 6 135 3.2 14.5 0.00 0.51 0.00 92 1016.6
20260508032316 7 157 3.2 11.3 0.00 0.51 0.00 92 1016.6
20260508031308 7 135 3.2 11.3 0.00 0.51 0.00 92 1016.5
20260508030304 7 135 3.2 11.3 0.00 0.51 0.00 92 1016.4
20260508025255 7 112 3.2 9.7 0.00 0.51 0.00 92 1016.3
20260508024249 7 157 3.2 9.7 0.00 0.51 0.00 92 1016.7
20260508023243 7 67 1.6 14.5 0.00 0.51 0.00 92 1016.4
20260508022236 7 135 6.4 14.5 0.00 0.51 0.00 92 1016.2
20260508021233 7 135 3.2 12.9 0.00 0.51 0.00 93 1016.0
20260508020224 7 112 6.4 12.9 0.00 0.51 0.00 93 1016.1
20260508015219 7 135 3.2 6.4 0.00 0.51 0.00 93 1016.1
20260508014211 7 135 3.2 11.3 0.00 0.51 0.00 93 1016.2
20260508013205 7 112 1.6 11.3 0.00 0.51 0.00 93 1016.3
20260508012203 7 135 3.2 6.4 0.00 0.51 0.00 93 1015.9
20260508011153 7 135 3.2 9.7 0.00 0.51 0.00 93 1016.0
20260508010148 7 112 3.2 11.3 0.00 0.51 0.00 93 1015.9
20260508005140 7 135 3.2 11.3 0.00 0.51 0.00 93 1015.4
20260508004134 7 180 3.2 9.7 0.00 0.51 0.00 93 1016.0
20260508003133 7 157 3.2 12.9 0.00 0.51 0.00 92 1015.9
20260508002123 7 157 3.2 11.3 0.00 0.51 0.00 92 1015.8
20260508001115 7 135 1.6 9.7 0.00 0.51 0.00 92 1015.9
20260508000110 7 135 3.2 9.7 0.00 0.51 0.00 93 1016.0
20260507235104 7 112 1.6 6.4 0.00 0.51 0.00 93 1015.8
20260507234100 7 135 3.2 9.7 0.00 0.51 0.00 93 1015.5
20260507233051 7 180 4.8 11.3 0.00 0.51 0.00 93 1015.8
20260507232045 7 180 1.6 11.3 0.00 0.51 0.00 93 1015.8
20260507231038 7 157 3.2 6.4 0.00 0.51 0.00 93 1015.8
20260507230033 7 112 3.2 9.7 0.00 0.51 0.00 93 1015.6
20260507225030 7 157 0.0 11.3 0.00 0.51 0.00 93 1015.5
20260507224020 7 135 3.2 9.7 0.00 0.51 0.00 93 1015.5
20260507223015 7 112 3.2 12.9 0.00 0.51 0.00 93 1015.2
20260507222007 7 112 3.2 9.7 0.00 0.51 0.00 93 1015.2
20260507221001 7 180 0.0 9.7 0.00 0.51 0.00 93 1015.3
20260507215958 7 157 0.0 9.7 0.00 0.51 0.00 93 1015.6
20260507214949 7 90 3.2 6.4 0.00 0.51 0.00 94 1015.3
20260507213942 7 135 1.6 11.3 0.00 0.51 0.00 94 1015.2
20260507212937 7 135 3.2 9.7 0.00 0.51 0.00 94 1015.0
20260507211932 8 135 3.2 6.4 0.00 0.51 0.00 94 1015.1
20260507210928 8 135 1.6 6.4 0.00 0.51 0.00 94 1014.8
20260507205918 8 135 3.2 12.9 0.00 0.51 0.51 94 1014.7
20260507204912 8 135 3.2 12.9 0.00 0.51 0.51 94 1014.8
20260507203906 8 90 3.2 11.3 0.00 0.51 0.51 94 1014.6
20260507202859 8 135 1.6 9.7 0.00 0.51 0.51 94 1014.6
20260507201856 8 180 1.6 11.3 0.00 0.51 0.51 94 1014.5
20260507200847 8 157 4.8 12.9 0.00 0.51 0.51 94 1014.4
20260507195841 8 135 3.2 11.3 0.00 0.51 0.51 94 1014.4
20260507194836 8 135 4.8 9.7 0.00 0.51 0.51 94 1014.1
20260507193829 8 157 3.2 6.4 0.00 0.51 0.51 94 1014.1
20260507192824 8 157 1.6 9.7 0.00 0.51 0.51 94 1014.2
20260507191816 8 157 3.2 6.4 0.00 0.51 0.51 94 1013.9
20260507190810 8 180 1.6 6.4 0.00 0.51 0.51 94 1013.7
20260507185804 8 135 3.2 9.7 0.00 0.51 0.51 93 1013.8
20260507184758 8 180 0.0 6.4 0.00 0.51 0.51 93 1013.8
20260507183755 8 135 1.6 9.7 0.00 0.51 0.51 93 1013.7
20260507182745 8 135 0.0 6.4 0.00 0.51 0.51 92 1013.7
20260507181740 8 135 3.2 9.7 0.00 0.51 0.51 92 1013.6
20260507180733 8 135 0.0 6.4 0.00 0.53 0.51 93 1013.5
20260507175726 8 157 3.2 6.4 0.00 0.53 0.51 93 1013.4
20260507174724 8 157 1.6 9.7 0.00 0.53 0.51 93 1013.2
20260507173714 8 135 3.2 6.4 0.00 0.53 0.51 94 1013.1
20260507172708 8 135 1.6 6.4 0.00 0.53 0.51 94 1012.9
20260507171702 8 135 3.2 11.3 0.00 0.53 0.51 95 1013.0
20260507170655 8 157 3.2 6.4 0.00 0.53 0.51 96 1012.8
20260507165653 8 157 3.2 14.5 0.00 0.53 0.51 96 1012.5
20260507164644 8 135 1.6 6.4 0.00 0.53 0.51 97 1012.3
20260507163637 8 135 3.2 11.3 0.00 0.53 0.51 97 1012.2
20260507162630 8 157 3.2 9.7 0.00 0.53 0.51 97 1012.1
20260507161624 8 135 1.6 9.7 0.00 0.53 0.51 97 1012.2
20260507160621 8 157 3.2 6.4 0.00 0.53 0.51 97 1012.1
20260507155612 8 135 4.8 14.5 0.00 0.53 0.51 97 1012.0
20260507154606 8 135 1.6 12.9 0.00 0.53 0.51 97 1012.1
20260507153559 8 135 1.6 3.2 0.00 0.53 0.51 97 1012.1
20260507152553 8 157 3.2 9.7 0.00 0.53 0.51 97 1012.3
20260507151551 8 225 3.2 11.3 0.00 0.53 0.51 96 1012.2
20260507150541 8 180 0.0 6.4 0.00 0.53 0.51 96 1012.0
20260507145535 8 157 3.2 6.4 0.00 0.53 0.51 96 1012.0
20260507144529 9 202 1.6 12.9 0.00 0.53 0.51 95 1011.8
20260507143523 9 180 0.0 9.7 0.00 0.53 0.51 95 1011.6
20260507142520 9 157 3.2 11.3 0.00 0.53 0.51 95 1011.4
20260507141510 9 157 0.0 6.4 0.00 0.53 0.51 95 1011.2
20260507140505 9 157 1.6 9.7 0.00 0.53 0.51 95 1011.1
20260507135458 9 180 3.2 9.7 0.00 0.53 0.51 95 1011.3
20260507134452 9 202 3.2 6.4 0.00 0.53 0.51 95 1011.2
20260507133448 9 157 1.6 6.4 0.00 0.53 0.51 95 1010.9
20260507132439 8 157 1.6 9.7 0.00 0.53 0.51 95 1011.0
20260507131433 9 157 3.2 9.7 0.00 0.53 0.51 95 1010.9
20260507130427 9 157 1.6 6.4 0.00 0.53 0.51 95 1010.7
20260507125420 9 180 0.0 9.7 0.00 0.53 0.51 95 1010.9
20260507124417 8 202 4.8 6.4 0.00 0.53 0.51 95 1010.5
20260507123408 9 180 3.2 6.4 0.00 0.53 0.51 95 1010.7
20260507122402 9 202 0.0 9.7 0.00 0.53 0.51 95 1010.3
20260507121357 9 180 1.6 9.7 0.00 0.53 0.51 95 1010.4
20260507120349 9 157 1.6 6.4 0.00 0.53 0.51 96 1010.4